Theta_e
307 310 316 314 314 313 313 314 314 316 318 318 317 318 320 320 319 319 319 319 319 317 317 317 318 319 321 324 326 326 326 327 328 329 329 330 329 329 329 329 328 327 327 328
309 310 311 315 315 315 316 315 316 317 319 320 319 319 319 319 319 319 320 320 320 319 322 319 318 320 322 324 325 326 326 327 329 329 328 329 328 328 328 329 328 327 327 327
308 310 311 316 317 319 319 318 317 318 319 319 319 319 319 320 319 320 321 320 320 319 321 319 319 320 322 323 325 326 327 328 331 329 329 328 327 327 327 327 327 326 327 325
307 309 311 314 318 319 319 319 320 321 318 318 319 322 319 320 321 321 320 318 319 321 322 319 319 319 322 324 325 326 327 330 331 330 329 329 328 327 327 327 326 327 327 327
308 308 309 312 316 319 318 318 321 319 317 317 318 321 320 319 321 321 320 319 317 320 321 320 319 321 322 324 326 327 329 331 331 330 329 328 327 326 326 326 327 327 327 328
309 311 309 311 313 317 316 316 316 317 316 320 319 321 321 321 321 321 320 321 321 322 320 319 319 320 321 324 326 328 330 331 331 329 328 326 326 326 326 327 327 327 328 328
310 310 311 311 312 313 314 313 314 316 319 321 319 321 320 320 320 321 321 319 321 322 320 320 320 319 320 325 327 329 329 330 330 328 327 325 325 325 327 328 328 329 328 328
314 312 311 312 311 312 313 313 315 317 321 323 320 324 322 320 321 320 320 320 321 322 320 321 320 319 321 325 328 328 328 329 329 328 327 325 325 325 326 326 328 328 329 329
314 315 313 313 312 313 312 314 313 316 320 322 322 321 320 321 321 321 321 323 322 322 321 320 320 319 321 326 327 327 328 328 328 328 328 326 326 327 326 327 328 329 329 328
312 314 314 313 313 312 312 313 314 314 321 325 323 324 323 323 323 325 325 323 322 321 321 321 321 319 322 326 327 327 328 327 328 328 328 328 329 329 327 327 327 328 328 328
313 312 314 313 313 312 310 314 312 312 316 321 323 323 319 322 322 324 324 322 322 322 322 322 321 320 322 325 326 327 327 326 328 328 328 328 329 328 326 327 328 328 328 328
311 312 314 314 312 313 312 310 311 316 316 316 319 321 319 321 320 322 323 322 321 321 322 322 320 318 320 323 325 326 326 326 328 327 328 328 329 327 325 328 328 328 328 328
313 314 315 314 315 313 313 312 312 313 312 317 317 318 318 319 320 322 322 322 321 321 321 320 318 318 319 321 323 325 326 326 327 327 328 329 328 328 326 326 326 328 328 328
311 311 316 316 315 313 314 313 312 310 312 316 318 318 321 322 321 321 323 322 321 322 323 321 319 319 319 320 322 323 325 326 327 326 328 329 329 328 326 326 327 328 328 328
310 310 314 314 316 317 315 314 314 313 313 314 318 320 320 320 321 322 322 321 322 322 323 322 321 319 317 319 321 323 326 325 326 325 328 328 328 328 327 327 327 327 328 329
311 310 311 312 315 317 318 314 314 314 313 313 315 315 317 319 321 325 324 323 324 323 324 323 321 320 318 319 321 322 324 325 325 324 327 328 328 328 327 328 328 328 328 328
312 310 309 311 311 315 318 317 315 314 314 314 316 316 318 322 323 324 324 324 324 324 323 323 322 321 320 319 321 322 324 324 324 324 326 327 327 329 329 328 325 327 328 328
311 311 309 310 315 320 317 315 315 314 314 313 314 315 318 319 321 322 323 324 324 323 323 323 322 320 320 320 320 322 323 323 324 323 324 327 327 328 329 328 324 326 325 328
310 312 309 314 321 317 317 319 318 314 315 315 316 316 318 319 322 324 323 324 324 323 323 322 322 320 320 320 321 322 322 322 323 323 323 326 327 327 329 329 324 324 324 327
311 311 311 316 323 320 321 318 317 318 315 316 319 322 317 319 324 324 321 323 322 321 322 321 322 319 319 320 321 321 321 321 322 323 323 325 326 328 327 329 324 322 324 326
314 314 313 314 315 319 319 317 316 317 316 314 315 318 322 320 322 323 321 323 323 321 320 321 321 319 319 320 321 320 320 321 323 323 323 323 324 327 326 329 324 322 322 324
316 318 314 314 318 324 317 316 317 315 313 314 314 314 318 320 320 319 320 324 323 320 319 321 321 319 318 320 321 320 319 322 323 323 323 323 323 327 326 326 323 322 321 322
316 315 317 318 322 316 314 315 313 311 312 313 313 314 314 324 319 317 320 321 323 321 321 321 321 318 317 319 321 321 320 321 322 322 322 322 322 324 327 327 324 322 320 319
313 312 316 316 317 316 314 314 312 311 312 312 311 313 319 324 319 316 318 321 322 321 321 321 320 318 318 319 320 321 320 320 321 321 321 321 321 322 325 326 326 324 321 320
310 313 316 315 315 313 314 312 312 313 312 311 311 312 323 324 316 315 317 320 322 321 321 321 321 319 319 319 320 320 320 320 319 320 319 320 320 321 322 324 326 326 325 324
311 312 315 315 311 312 312 312 312 312 311 311 311 313 314 322 323 316 316 319 322 321 321 321 321 320 319 319 320 320 320 319 319 318 317 318 319 319 321 322 324 325 325 325
Wind_Speed
7 7 19 27 20 9 15 9 10 14 2 3 8 9 18 12 7 11 11 11 12 12 4 8 20 28 31 35 35 29 25 20 16 11 9 5 4 7 8 8 8 9 10 9
6 27 20 12 18 19 9 14 21 16 6 4 11 13 17 15 12 11 13 14 11 4 3 3 16 21 27 36 34 29 23 20 14 9 4 2 5 5 6 7 6 10 8 6
26 18 13 18 15 15 19 20 18 17 5 5 6 10 16 13 7 7 10 11 9 9 8 7 8 18 24 31 33 27 22 17 12 7 3 2 4 5 4 3 5 5 3 3
19 22 18 17 24 19 22 17 14 14 3 5 4 6 12 12 11 7 10 8 8 0 5 8 9 13 23 31 28 24 20 15 11 6 2 3 4 3 2 5 5 4 2 4
12 18 28 23 21 19 12 10 12 9 5 1 3 4 7 5 9 11 10 9 6 4 8 11 12 20 25 29 26 22 18 14 10 5 2 4 1 0 2 3 5 3 2 5
9 6 20 23 13 19 5 6 4 2 3 4 10 7 6 5 9 8 7 4 4 6 9 10 15 22 25 25 23 21 16 12 9 5 1 0 3 2 4 5 4 5 2 4
5 10 1 8 8 8 10 9 1 3 1 5 7 8 15 9 9 12 12 7 5 8 9 14 16 13 20 25 24 19 15 12 9 6 2 4 2 1 4 5 5 4 2 1
8 4 12 8 9 10 17 12 7 7 4 4 7 8 7 18 22 9 6 3 8 9 7 13 12 14 20 25 25 19 15 13 10 7 4 4 1 3 4 5 3 4 4 2
9 10 5 19 9 17 6 15 9 4 2 1 4 5 7 7 8 7 7 6 9 9 8 11 10 15 19 25 26 20 16 12 11 7 5 3 2 2 4 4 3 3 4 3
5 2 12 15 12 17 14 11 7 4 7 5 4 3 5 7 9 6 6 9 7 7 9 10 10 13 20 27 25 19 17 14 12 8 5 4 2 2 3 3 5 4 4 5
3 1 4 11 18 14 5 9 3 6 5 5 1 6 7 8 7 9 8 8 9 12 12 12 10 15 22 27 24 21 17 14 13 10 6 4 2 2 3 4 6 6 6 6
4 2 5 15 7 18 20 9 9 9 7 3 3 6 4 7 7 8 8 8 7 8 10 11 11 14 18 23 23 22 19 16 15 11 7 5 3 4 5 6 5 6 6 7
9 4 2 4 3 4 22 13 12 5 5 15 4 5 2 3 6 5 7 9 9 10 9 8 9 10 14 20 24 22 20 18 15 12 10 8 5 5 5 7 6 5 7 8
9 4 4 6 2 5 17 19 17 7 5 7 20 5 5 7 7 6 7 7 8 10 11 10 8 9 13 19 25 23 21 19 17 14 12 9 8 7 7 9 9 7 8 9
6 4 3 10 13 9 1 18 20 20 13 6 5 15 6 10 11 9 7 9 10 11 12 13 12 10 11 17 23 24 23 21 19 16 14 11 9 9 8 9 9 9 9 8
6 4 6 5 12 9 10 7 20 24 20 13 6 9 8 7 6 6 12 12 12 13 13 13 12 11 11 18 23 25 25 24 22 19 16 13 11 11 9 7 6 6 9 11
2 4 5 4 10 8 8 21 11 10 15 15 15 15 5 4 7 9 9 14 16 15 14 15 16 15 18 22 27 26 27 26 24 21 17 15 14 12 9 7 6 10 9 11
6 3 2 4 4 5 7 8 13 11 8 17 12 7 10 9 11 10 11 16 14 13 14 13 12 14 21 24 28 31 27 26 27 23 20 17 16 15 11 9 8 10 10 12
9 4 3 2 2 5 1 6 5 4 11 6 8 13 7 9 4 5 9 11 19 18 17 16 24 25 24 29 32 32 28 26 27 26 23 21 19 16 16 14 11 8 9 12
8 10 4 2 2 6 2 17 12 8 6 11 13 10 9 8 7 7 12 10 10 9 10 14 23 23 27 28 34 31 27 26 24 28 28 24 22 19 19 18 15 11 10 12
4 4 8 6 3 4 11 19 12 7 5 17 12 12 14 10 9 16 13 12 15 15 16 23 24 25 28 30 33 27 26 26 32 30 30 26 23 21 20 20 18 15 14 14
3 2 3 3 4 4 14 7 7 7 9 12 13 13 14 16 15 6 12 16 13 13 14 23 21 22 27 35 33 26 28 36 31 29 30 28 25 24 21 21 19 17 17 16
3 4 2 3 2 3 4 3 5 4 11 12 16 17 14 16 14 9 11 11 14 15 15 26 23 22 25 33 34 28 29 35 33 30 30 30 28 26 24 23 22 20 18 17
1 3 3 2 6 14 17 8 6 13 13 17 15 17 15 15 15 11 8 10 12 13 14 23 22 18 21 31 34 34 34 37 35 31 32 31 30 28 26 25 24 24 22 19
1 4 2 4 5 15 2 11 13 20 18 20 21 18 14 12 12 9 7 9 12 14 15 24 22 22 25 30 30 31 36 38 35 33 31 32 32 31 28 27 27 27 26 24
1 2 1 1 3 7 13 14 19 15 18 20 20 22 20 11 11 6 8 8 12 12 16 16 19 19 23 29 29 34 38 41 36 29 29 31 30 31 30 29 25 26 26 25
Wind_Direction
179 194 214 206 208 198 225 225 238 253 197 232 251 271 275 278 253 260 261 266 256 241 235 199 186 180 175 178 170 169 174 181 186 196 215 230 265 273 270 266 280 293 294 269
161 219 215 187 202 209 199 228 245 275 230 226 271 273 283 286 267 253 266 274 265 221 206 137 143 155 161 161 165 167 176 177 180 192 192 243 290 278 286 284 279 303 309 260
201 220 189 196 200 197 216 217 233 245 358 257 299 289 286 284 261 280 261 247 266 229 185 140 137 144 150 156 163 170 173 174 174 179 168 273 292 293 298 303 297 320 298 186
230 227 192 195 209 190 219 209 240 251 162 244 113 289 292 302 287 247 280 293 285 241 122 139 135 141 148 162 166 166 168 172 174 168 198 296 312 307 328 318 310 323 219 212
211 191 205 205 202 190 231 185 208 226 212 306 248 273 270 309 289 285 284 288 279 141 145 147 146 147 157 162 165 165 167 173 167 173 244 306 307 284 348 321 302 322 251 218
204 205 200 211 201 200 178 94 71 72 130 252 238 198 251 217 227 268 271 292 109 127 131 133 138 147 155 163 163 164 170 167 166 179 227 231 129 83 2 328 324 331 283 222
171 224 209 155 146 166 165 125 286 310 242 222 203 194 245 261 238 232 253 250 170 139 151 149 152 153 153 162 166 168 167 161 176 176 178 137 121 59 7 332 331 18 65 146
190 189 192 178 185 168 182 172 161 189 203 243 192 210 245 219 233 231 241 217 151 146 166 160 159 154 158 167 169 169 166 172 172 180 172 144 116 38 358 346 19 53 67 83
192 228 168 175 174 164 190 210 162 131 228 133 227 265 299 222 218 231 223 169 175 152 161 153 159 159 160 169 173 170 175 174 176 185 164 157 90 21 10 28 57 78 63 92
268 232 214 198 176 196 185 138 172 205 195 227 287 251 219 200 215 196 203 199 156 132 150 153 165 163 168 175 175 177 181 180 180 185 165 139 89 21 31 59 75 67 68 100
308 171 271 148 202 173 148 178 141 160 152 171 180 259 216 200 199 211 220 184 159 166 164 166 166 171 173 178 178 185 187 183 184 187 169 134 97 72 75 103 78 60 67 85
302 309 249 207 172 194 199 180 165 195 192 173 168 262 250 226 215 203 199 161 157 150 161 164 167 158 167 177 182 192 192 191 191 189 174 141 116 103 90 116 94 59 77 104
340 305 170 349 168 208 201 199 189 86 106 207 161 248 334 264 221 229 184 156 150 148 155 151 155 163 171 178 187 196 197 196 192 191 176 153 133 110 105 118 108 94 77 103
320 269 256 211 245 122 200 201 190 148 157 177 221 241 252 282 242 204 164 156 145 157 165 165 166 170 174 180 189 199 199 195 190 188 178 166 149 129 112 112 115 111 95 111
324 279 291 280 272 297 39 204 208 212 212 174 207 207 217 223 222 208 160 134 143 160 174 177 176 174 171 174 189 200 196 191 189 186 182 174 155 152 145 116 114 109 105 113
326 282 337 299 281 279 271 256 216 210 217 232 227 246 212 256 96 164 166 161 170 182 186 179 177 172 176 179 187 198 195 191 189 188 185 175 162 160 160 143 134 142 107 107
164 316 351 292 336 315 259 238 231 231 216 200 209 225 172 208 205 200 184 177 183 184 181 183 183 181 183 182 186 194 196 192 191 192 186 181 170 161 162 156 129 123 121 129
177 138 258 265 326 200 256 191 206 209 225 228 240 177 197 216 222 201 200 182 182 180 186 184 181 181 186 180 184 195 198 193 194 194 187 184 176 163 168 161 143 128 119 126
187 129 265 234 258 283 301 46 10 169 241 196 219 237 246 231 86 267 201 212 185 184 185 186 181 179 175 176 185 192 194 195 193 196 192 188 183 172 170 172 161 143 127 127
204 187 208 294 239 214 54 315 312 269 223 16 348 333 278 141 188 231 188 193 181 173 172 167 172 168 173 176 182 181 188 191 189 197 197 191 187 182 174 174 171 158 141 130
93 126 196 226 282 283 337 323 308 139 297 325 331 313 311 228 199 217 172 190 189 176 168 162 163 171 178 174 176 176 183 192 204 203 199 194 191 188 182 177 176 165 152 140
101 163 179 188 251 284 352 0 60 285 302 311 314 307 291 280 251 192 183 187 172 156 151 162 166 174 173 176 175 175 187 200 202 202 199 196 193 190 185 183 180 174 164 156
188 186 147 250 295 343 352 242 243 276 311 314 320 310 295 281 269 245 188 182 179 171 171 171 170 165 172 177 180 181 190 194 197 199 198 198 194 193 190 187 185 179 178 168
240 158 228 266 13 336 312 316 308 332 320 320 322 318 299 283 251 229 230 176 171 171 169 167 158 165 172 182 186 191 187 190 189 191 197 198 195 194 193 194 194 190 186 184
302 312 247 271 331 323 321 345 328 327 323 331 330 330 320 312 252 220 206 183 175 174 164 169 174 177 183 180 182 184 187 185 182 187 192 195 196 196 196 199 199 200 201 199
212 286 328 309 302 274 283 313 319 322 325 325 327 331 329 338 317 248 201 207 171 170 166 171 178 173 171 175 179 182 186 185 177 175 183 191 191 193 198 199 201 211 214 211